Vertical_Velocity
-3 -6 -5 -2 -7 -2 -4 -9 -8 5 -7 -30 0 -0 5 1 1 -3 -0 -3 1 3 0 -0 -1 4 8 1 5 2 4 3 0 5 4 -0 3 4 2 2 7 2 -1 12
-7 -6 -3 -4 -4 -5 -6 -4 -0 -9 -13 -3 -0 -0 1 1 -5 2 -1 -0 2 -0 2 2 1 -0 3 -0 -1 6 -1 1 2 9 5 -6 -3 0 2 1 -0 3 -2 10
-6 -5 -3 -6 -2 -2 -6 -1 -1 -6 -10 0 1 0 2 -3 -0 1 0 4 -2 -3 -2 -2 -0 -2 -3 0 3 1 -3 -1 2 2 12 -2 -5 -3 -1 -1 -4 3 6 6
-6 -4 -5 -4 -5 -6 -5 -3 3 0 -1 -7 -1 -2 1 -1 -3 -0 -3 -5 1 5 0 -2 -1 -1 -6 -4 1 -2 -3 -2 -9 4 2 -6 5 3 0 -5 9 -1 8 -1
-5 -5 -7 -2 -4 -2 -24 -2 1 -1 1 -4 -5 -0 1 3 -6 3 -1 -1 1 -1 0 5 0 2 -0 9 -10 -0 -2 7 -4 4 3 -4 -3 -0 -0 -0 -0 -3 -2 2
-3 -3 -5 -4 -4 -7 -5 -1 -2 -0 6 -1 -6 7 2 1 0 -1 3 5 1 -4 6 1 5 -0 2 5 3 0 -1 -0 2 1 0 -2 -14 10 2 2 -0 4 0 9
-2 -4 -6 -3 -4 -9 -3 -2 -2 -4 4 -3 6 -0 3 1 2 3 -0 -1 -1 -0 1 2 1 -1 -1 -5 1 1 1 -0 0 2 2 -5 6 1 5 4 2 -1 -5 -1
-3 -3 -4 -2 -4 -6 -7 -4 -4 -2 1 6 -9 -6 3 -1 -0 -0 1 -0 3 1 -2 3 1 2 -3 -1 1 -3 -0 1 -1 -2 -0 7 -1 -5 3 4 3 4 5 -3
-3 -2 -3 -2 -5 -3 -3 -7 -6 -3 -5 2 6 1 6 3 0 -4 -1 -1 1 4 2 -1 0 2 2 -5 -12 -2 -5 -3 -2 -2 -3 1 8 -2 1 0 7 3 5 1
-2 -3 -2 -2 -4 -3 -3 -7 -6 -5 -5 -3 -3 -0 7 1 -1 1 -1 -5 -5 1 -0 -1 0 2 4 -1 0 -2 -4 -3 1 1 0 6 3 1 0 3 9 -2 4 3
-3 -1 -1 -2 -3 -1 1 -5 -3 -8 -5 1 1 3 -0 -2 0 3 -6 1 -2 -5 -4 -2 2 -1 3 -0 4 3 3 2 1 -2 -2 3 -1 -6 -6 5 -8 3 -2 1
-2 -1 -1 -1 -2 -4 2 -6 -3 -4 -17 -2 0 3 3 5 2 2 -0 1 1 1 -1 -1 -1 -0 -2 2 2 -3 0 6 4 6 7 2 4 0 1 1 3 -3 -1 -4
-3 -2 -1 -0 -1 -4 1 -1 -0 -0 -2 4 -2 -8 -4 6 -0 2 1 1 1 1 0 -1 1 -3 0 1 3 1 -1 -0 0 3 3 -0 -0 1 1 1 2 1 4 3
-3 -1 -1 -1 -1 -5 -1 -2 -2 -1 -1 -3 -1 1 -3 1 1 -2 -0 -0 0 -2 1 -1 -0 -2 -1 1 2 1 3 -1 2 -0 -2 -1 1 4 2 -1 3 3 1 0
-2 -2 -1 -1 -1 -2 0 -1 -5 -3 -1 -0 -0 1 5 3 3 1 2 1 -0 -1 -2 -3 1 0 -1 -0 1 -0 -0 1 1 2 0 0 -6 1 2 -1 0 2 2 -4
-2 -2 -2 -4 -2 -0 -0 2 2 -2 -2 -0 0 -2 -2 0 2 2 -1 -3 -4 -3 -2 -0 -1 -1 -1 -0 -0 -1 -1 -1 1 -1 2 3 3 0 2 1 1 -1 1 3
-2 -1 -0 0 -0 -2 -2 -1 -1 -1 -1 -1 -1 -1 -3 -3 -2 -1 1 0 -2 -2 -1 -0 -0 0 -1 -0 -0 -2 -0 0 1 1 -1 -2 0 -1 0 -0 1 1 2 2
-2 -2 0 -1 0 -0 -1 -1 -0 -0 -0 -2 -2 -3 -0 -6 -2 -1 -2 -0 0 -1 -0 -1 0 1 -1 0 -2 -2 -1 -1 -0 1 1 2 0 1 2 2 -1 -2 0 -1
-1 -2 -1 -0 1 1 -0 -1 -2 -1 -2 -3 -2 2 -0 -4 0 -0 1 -0 -1 -0 -0 0 2 1 -0 -2 -2 -2 -2 -2 -3 -2 -2 -2 -1 -3 -2 -1 0 -2 -3 -0
1 -1 -0 1 -1 1 -0 -1 1 -0 -2 -4 -2 -2 0 -1 -1 -0 -0 -1 0 0 3 -1 0 -1 -2 -2 -1 -1 -0 1 1 -1 -2 0 2 2 -1 -2 -0 1 -1 -3
1 -0 -0 -1 -1 0 -0 -2 -4 -2 -2 -2 -0 -0 0 1 2 1 -1 0 0 0 5 4 0 -1 -2 -2 -1 -0 0 0 1 -0 -0 1 1 -1 -2 -3 1 2 1 0
0 -0 -0 -0 0 -0 -6 -1 -2 -2 2 -0 0 1 -0 -0 0 2 -0 1 -1 1 -0 1 -0 -3 -1 -1 -0 -0 -1 -1 -1 1 -1 0 -0 1 1 -0 -3 -1 1 1
0 -0 -1 -4 -2 -7 -4 -1 -2 -1 -1 -1 -2 -3 0 0 1 -0 -0 0 1 -1 -0 1 -2 -2 -1 -1 -2 -1 1 -1 0 1 1 -0 -1 1 0 -2 3 -1 -3 0
-1 -2 -5 -3 -3 -0 -2 -1 -1 -1 -0 0 1 -0 1 -1 -1 -0 1 2 2 -0 -0 -1 -2 -1 -1 0 0 -1 -1 2 -1 -2 -1 -1 -1 -2 -0 -0 0 -1 -1 -1
-1 -1 -2 -0 -1 -1 -1 -1 -1 -0 -1 1 0 -0 -1 -0 0 -0 1 -1 -1 -0 -2 -2 -1 -1 -0 -1 0 1 1 1 1 3 -0 -1 -1 -0 -2 3 0 -1 -0 -1
-1 -1 -1 -0 -0 -0 -0 -0 -1 -0 0 0 -1 -0 -1 -0 1 0 -1 0 -2 -2 -3 -1 -1 -1 0 -0 1 1 1 -0 -1 2 2 -0 1 3 1 1 3 -1 -0 -1
-1 -1 -1 -1 -1 -0 -0 -0 1 -0 -1 0 -1 -1 1 -0 0 -0 -1 -3 -3 -1 -2 1 2 -1 -1 -1 -0 1 0 -0 0 0 2 2 2 2 2 -0 1 -0 2 1
Height
1521 1517 1511 1505 1498 1493 1489 1487 1487 1487 1479 1474 1482 1487 1490 1489 1486 1483 1481 1479 1474 1474 1469 1465 1461 1461 1459 1458 1453 1446 1443 1443 1438 1443 1449 1448 1448 1450 1437 1399 1408 1420 1402 1476
1524 1520 1515 1508 1501 1494 1491 1493 1495 1492 1486 1487 1491 1494 1493 1491 1489 1487 1484 1483 1481 1479 1475 1470 1466 1464 1463 1460 1455 1451 1446 1446 1438 1441 1442 1445 1453 1457 1451 1436 1428 1447 1424 1483
1527 1522 1517 1510 1503 1498 1495 1495 1497 1499 1498 1503 1501 1500 1498 1495 1493 1491 1489 1488 1484 1479 1476 1474 1472 1468 1465 1463 1461 1455 1448 1454 1450 1460 1473 1470 1474 1468 1456 1447 1436 1461 1472 1490
1530 1525 1520 1513 1507 1502 1499 1501 1510 1510 1508 1505 1506 1504 1504 1501 1498 1496 1493 1488 1489 1489 1481 1478 1475 1472 1470 1465 1465 1460 1458 1470 1472 1481 1481 1479 1483 1479 1475 1472 1477 1469 1488 1499
1533 1528 1523 1516 1511 1506 1502 1508 1511 1512 1514 1512 1509 1509 1507 1505 1503 1500 1497 1496 1494 1491 1489 1487 1486 1481 1482 1486 1474 1469 1467 1470 1476 1484 1480 1481 1488 1494 1494 1491 1496 1500 1500 1499
1535 1532 1526 1520 1515 1510 1509 1511 1513 1513 1520 1516 1512 1515 1512 1509 1506 1502 1502 1500 1496 1496 1498 1495 1494 1492 1492 1491 1485 1478 1474 1470 1468 1482 1480 1475 1493 1517 1511 1513 1515 1515 1515 1513
1538 1535 1530 1524 1519 1515 1514 1514 1514 1516 1522 1518 1519 1516 1513 1510 1508 1505 1503 1501 1498 1501 1500 1499 1497 1495 1492 1490 1489 1488 1484 1474 1474 1477 1482 1502 1518 1522 1519 1516 1518 1518 1515 1512
1540 1537 1534 1529 1525 1522 1519 1517 1517 1519 1524 1524 1520 1517 1515 1510 1507 1506 1504 1503 1502 1499 1500 1495 1490 1488 1489 1492 1493 1491 1490 1486 1487 1487 1497 1516 1517 1520 1523 1522 1517 1519 1520 1518
1542 1540 1537 1534 1531 1528 1524 1522 1521 1521 1526 1530 1527 1522 1518 1514 1510 1506 1505 1503 1500 1499 1495 1494 1500 1504 1511 1502 1499 1497 1494 1489 1481 1493 1499 1508 1529 1523 1519 1518 1511 1522 1520 1514
1543 1541 1539 1537 1534 1532 1529 1526 1525 1524 1529 1534 1529 1527 1525 1521 1517 1514 1510 1506 1502 1500 1496 1501 1506 1510 1517 1517 1519 1516 1506 1503 1500 1497 1507 1525 1532 1525 1519 1513 1522 1521 1519 1516
1544 1543 1541 1539 1537 1536 1535 1532 1530 1529 1532 1535 1532 1529 1525 1522 1521 1517 1512 1508 1506 1505 1505 1507 1514 1513 1523 1523 1531 1530 1524 1521 1515 1509 1513 1526 1533 1527 1528 1534 1529 1525 1520 1517
1545 1544 1543 1541 1540 1538 1536 1534 1535 1534 1533 1537 1535 1531 1528 1524 1522 1520 1517 1517 1516 1515 1513 1517 1518 1519 1524 1533 1520 1530 1528 1534 1529 1527 1530 1536 1536 1536 1536 1534 1530 1527 1522 1516
1546 1545 1544 1543 1541 1539 1538 1537 1536 1536 1536 1538 1536 1533 1532 1527 1524 1522 1521 1519 1517 1517 1516 1520 1526 1531 1531 1529 1534 1535 1534 1535 1533 1534 1534 1534 1533 1534 1533 1531 1528 1524 1521 1516
1547 1546 1545 1544 1543 1541 1540 1539 1538 1537 1537 1538 1541 1537 1533 1531 1528 1524 1523 1521 1520 1519 1519 1522 1526 1529 1536 1537 1540 1537 1540 1537 1537 1534 1534 1530 1531 1531 1528 1525 1522 1518 1514 1511
1547 1547 1546 1545 1543 1542 1541 1540 1539 1538 1540 1539 1539 1538 1537 1535 1532 1529 1526 1524 1523 1521 1523 1527 1533 1536 1537 1541 1541 1539 1542 1540 1537 1533 1537 1536 1531 1528 1525 1521 1517 1514 1510 1506
1549 1548 1547 1546 1545 1543 1542 1541 1541 1539 1538 1539 1538 1539 1537 1536 1534 1532 1530 1527 1525 1525 1528 1534 1537 1538 1539 1538 1537 1541 1540 1540 1539 1538 1535 1532 1529 1526 1523 1518 1514 1511 1508 1504
1549 1549 1549 1548 1546 1545 1544 1545 1543 1539 1538 1538 1539 1539 1537 1535 1533 1532 1530 1529 1528 1529 1531 1535 1537 1538 1539 1539 1536 1539 1539 1538 1536 1535 1533 1529 1527 1524 1520 1516 1512 1509 1506 1502
1549 1550 1549 1548 1547 1545 1545 1544 1542 1540 1540 1539 1541 1541 1538 1537 1535 1533 1531 1531 1530 1532 1534 1537 1538 1539 1539 1538 1539 1539 1538 1536 1535 1534 1532 1529 1525 1522 1518 1514 1509 1505 1501 1498
1549 1549 1549 1548 1547 1546 1545 1544 1542 1542 1544 1542 1546 1547 1542 1539 1537 1535 1534 1532 1533 1535 1536 1538 1539 1539 1536 1537 1537 1537 1536 1535 1533 1531 1529 1527 1523 1519 1515 1511 1507 1504 1499 1496
1550 1549 1549 1548 1548 1545 1546 1544 1544 1542 1543 1545 1549 1550 1546 1545 1540 1537 1536 1534 1536 1533 1540 1539 1537 1535 1535 1535 1536 1535 1534 1533 1530 1527 1525 1523 1520 1517 1513 1510 1506 1503 1499 1495
1551 1549 1549 1548 1546 1546 1545 1545 1547 1549 1551 1551 1551 1550 1549 1545 1544 1541 1541 1539 1539 1535 1540 1538 1537 1534 1535 1534 1535 1534 1532 1530 1528 1526 1523 1521 1518 1515 1511 1507 1504 1500 1496 1493
1551 1550 1549 1548 1547 1547 1547 1555 1554 1554 1554 1553 1552 1551 1549 1546 1545 1543 1543 1540 1541 1537 1544 1538 1533 1534 1533 1532 1531 1531 1529 1527 1525 1523 1520 1518 1515 1512 1509 1506 1501 1497 1494 1490
1550 1550 1549 1549 1551 1552 1554 1562 1556 1556 1557 1555 1553 1552 1549 1547 1546 1545 1544 1540 1541 1546 1542 1537 1536 1532 1531 1531 1530 1528 1526 1524 1521 1519 1517 1514 1511 1509 1506 1502 1499 1495 1491 1487
1550 1549 1552 1556 1556 1557 1557 1558 1557 1557 1555 1554 1552 1551 1550 1548 1547 1547 1542 1548 1548 1540 1539 1534 1532 1531 1530 1528 1526 1524 1522 1521 1518 1516 1513 1510 1508 1505 1502 1498 1494 1491 1487 1484
1550 1551 1555 1556 1556 1555 1555 1555 1555 1555 1553 1552 1551 1551 1551 1549 1548 1548 1548 1544 1541 1540 1535 1533 1531 1529 1527 1525 1523 1521 1518 1516 1514 1511 1509 1506 1503 1499 1496 1494 1490 1486 1483 1480
1550 1551 1553 1555 1556 1555 1554 1553 1553 1553 1552 1551 1551 1551 1550 1551 1552 1548 1545 1546 1540 1535 1533 1530 1528 1526 1524 1522 1519 1516 1514 1511 1508 1505 1503 1499 1496 1493 1490 1487 1485 1481 1478 1475
1549 1550 1550 1552 1553 1552 1552 1551 1552 1552 1552 1552 1551 1552 1550 1554 1550 1547 1547 1540 1533 1530 1528 1526 1524 1522 1520 1518 1515 1512 1509 1506 1502 1499 1495 1492 1489 1486 1484 1481 1480 1477 1474 1470